User: anonymous   Login
Location: Unspecified
(0.0000°N, 0.0000°E)
Time: 14:45:13
(UTC+00:00)
Language:

Isis 2 - Orbit

View from above orbital plane
View from above orbital plane
View from above satellite
View from above satellite

Ground track
Ground track

The orbit data is extracted from the following two-line orbital elements,

1  5104U 71024A   17206.26011567 +.00000024 +00000-0 +68590-4 0  9996
2  5104 088.1667 114.9731 0042116 262.4688 210.7920 12.67835314143058
Epoch (UTC): 25 July 2017 06:14:33
Eccentricity: 0.0042116
inclination: 88.1667°
perigee height: 1358 km
apogee height: 1423 km
right ascension of ascending node: 114.9731°
argument of perigee: 262.4688°
revolutions per day: 12.67835314
mean anomaly at epoch: 210.7920°
orbit number at epoch: 14305

The dashed part of the orbit path shows where the satellite is in the earth's shadow,  

DLR